SP5MRF Weather Reports


time (UTC)temp
C
wind
direction
speed
KPH
gust
KPH
rain 1hr
cm
rain 24hr
cm
rain mn
cm
humidity
%
barometer
mb
20260905223244 13 0 0.0 0.0 0.00 0.00 0.00 81 1010.9
20260905222443 13 337 0.0 3.2 0.00 0.00 0.00 80 1010.8
20260905221643 13 22 0.0 0.0 0.00 0.00 0.00 80 1010.9
20260905220843 13 315 0.0 0.0 0.00 0.00 0.00 80 1010.9
20260905215243 13 337 0.0 0.0 0.00 0.00 0.00 79 1010.8
20260905214443 13 315 0.0 4.8 0.00 0.00 0.00 79 1010.7
20260905213644 14 337 3.2 3.2 0.00 0.00 0.00 78 1010.7
20260905212844 14 0 0.0 0.0 0.00 0.00 0.00 77 1010.6
20260905212044 14 22 0.0 4.8 0.00 0.00 0.00 76 1010.5
20260905211244 14 337 0.0 4.8 0.00 0.00 0.00 76 1010.6
20260905210444 15 22 0.0 1.6 0.00 0.00 0.00 76 1010.3
20260905205644 15 45 0.0 0.0 0.00 0.00 0.00 76 1010.4
20260905204844 15 0 0.0 8.0 0.00 0.00 0.00 76 1010.2
20260905204044 15 67 0.0 0.0 0.00 0.00 0.00 75 1010.1
20260905203244 15 315 0.0 1.6 0.00 0.00 0.00 75 1009.8
20260905202444 15 22 4.8 4.8 0.00 0.00 0.00 74 1010.0
20260905201644 15 315 0.0 0.0 0.00 0.00 0.00 74 1009.8
20260905200844 15 22 0.0 0.0 0.00 0.00 0.00 74 1009.7
20260905200044 15 337 0.0 0.0 0.00 0.00 0.00 74 1009.8
20260905195244 15 0 0.0 0.0 0.00 0.05 0.00 74 1009.9
20260905193644 15 292 1.6 1.6 0.00 0.05 0.00 74 1009.8
20260905192844 15 315 0.0 4.8 0.00 0.05 0.00 74 1009.8
20260905192044 15 67 0.0 1.6 0.00 0.05 0.00 75 1009.6
20260905191244 15 22 0.0 0.0 0.00 0.05 0.00 75 1009.8
20260905185644 15 0 0.0 1.6 0.00 0.15 0.00 75 1009.8
20260905184844 15 22 0.0 3.2 0.00 0.15 0.00 74 1009.8
20260905184044 15 0 0.0 3.2 0.00 0.15 0.00 73 1009.9
20260905183244 15 22 0.0 0.0 0.00 0.15 0.00 73 1009.9
20260905182444 15 22 0.0 0.0 0.00 0.15 0.00 72 1010.2
20260905181644 15 22 0.0 0.0 0.00 0.15 0.00 72 1010.1
20260905180844 15 22 0.0 0.0 0.00 0.15 0.00 71 1010.3
20260905175244 15 0 0.0 0.0 0.00 0.15 0.00 70 1009.9
20260905173644 15 0 0.0 0.0 0.00 0.15 0.00 69 1009.7
20260905172844 15 22 0.0 0.0 0.00 0.15 0.00 68 1009.7
20260905172044 15 0 0.0 0.0 0.00 0.15 0.00 68 1009.6
20260905171244 16 0 0.0 0.0 0.00 0.15 0.00 67 1009.7
20260905165644 16 22 0.0 1.6 0.00 0.15 0.00 67 1009.8
20260905164844 16 0 0.0 0.0 0.00 0.15 0.00 66 1009.8
20260905164044 16 0 0.0 0.0 0.00 0.15 0.00 66 1009.6
20260905163244 16 0 0.0 0.0 0.00 0.15 0.00 65 1009.5
20260905162444 16 0 0.0 1.6 0.00 0.15 0.00 64 1009.4
20260905161645 16 22 0.0 3.2 0.00 0.15 0.00 63 1009.4
20260905160844 16 0 0.0 9.7 0.00 0.15 0.00 62 1009.2
20260905155244 17 22 0.0 6.4 0.00 0.15 0.00 61 1009.1
20260905154444 17 315 0.0 8.0 0.00 0.15 0.00 60 1009.4
20260905153645 17 22 0.0 3.2 0.00 0.15 0.00 60 1009.3
20260905152844 17 315 0.0 8.0 0.00 0.15 0.00 60 1009.4
20260905152044 18 22 0.0 6.4 0.00 0.15 0.00 59 1009.3
20260905150445 18 315 0.0 1.6 0.00 0.15 0.00 56 1009.0
20260905145644 18 0 0.0 3.2 0.00 0.15 0.00 56 1008.9
20260905144844 19 22 4.8 8.0 0.00 0.15 0.00 55 1008.9
20260905144045 19 0 0.0 9.7 0.00 0.15 0.00 54 1008.7
20260905143244 20 315 4.8 8.0 0.00 0.15 0.00 54 1008.6
20260905142444 20 337 0.0 6.4 0.00 0.15 0.00 52 1008.5
20260905141644 20 0 3.2 6.4 0.00 0.15 0.00 52 1008.3
20260905140844 20 315 0.0 6.4 0.00 0.15 0.00 53 1008.3
20260905140047 20 337 0.0 8.0 0.00 0.15 0.00 53 1008.2
20260905135244 20 22 0.0 0.0 0.00 0.15 0.00 52 1008.0
20260905134444 21 22 0.0 3.2 0.00 0.15 0.00 54 1008.1
20260905133644 20 0 0.0 6.4 0.00 0.15 0.00 53 1008.1
20260905132844 20 45 0.0 8.0 0.00 0.15 0.00 54 1008.1
20260905132046 20 337 0.0 8.0 0.00 0.15 0.00 54 1008.2
20260905131244 21 337 0.0 3.2 0.00 0.15 0.00 52 1008.2
20260905130444 22 315 0.0 1.6 0.00 0.15 0.00 51 1008.2
20260905125644 21 67 0.0 12.9 0.00 0.15 0.00 51 1008.3
20260905124844 21 67 0.0 4.8 0.00 0.15 0.00 52 1008.2
20260905124044 20 67 0.0 0.0 0.00 0.15 0.00 55 1008.2
20260905123246 20 22 0.0 9.7 0.00 0.15 0.00 52 1008.3
20260905122446 21 22 0.0 3.2 0.00 0.15 0.00 53 1008.4
20260905121646 20 0 0.0 3.2 0.00 0.15 0.00 53 1008.3
20260905120044 21 67 0.0 9.7 0.00 0.15 0.00 52 1008.2
20260905115246 21 292 0.0 0.0 0.00 0.15 0.00 53 1008.1
20260905113644 20 315 0.0 0.0 0.00 0.15 0.00 55 1008.2
20260905112044 20 0 0.0 9.7 0.00 0.15 0.00 55 1008.0
20260905111244 21 337 4.8 6.4 0.00 0.15 0.00 53 1007.9
20260905110446 21 337 0.0 0.0 0.00 0.15 0.00 55 1008.0
20260905105646 21 45 0.0 6.4 0.00 0.15 0.00 55 1007.9
20260905104844 21 0 0.0 8.0 0.00 0.15 0.00 56 1007.9
20260905104044 21 22 4.8 4.8 0.00 0.15 0.00 58 1008.0
20260905103246 20 0 0.0 6.4 0.00 0.15 0.00 58 1007.8
20260905102444 20 337 0.0 8.0 0.00 0.15 0.00 59 1007.9
20260905101644 20 0 3.2 6.4 0.00 0.15 0.00 61 1007.9
20260905100044 18 337 0.0 0.0 0.00 0.15 0.00 63 1007.7
20260905095244 18 22 0.0 0.0 0.00 0.15 0.00 63 1007.6
20260905094444 18 315 0.0 4.8 0.00 0.15 0.00 62 1007.7
20260905093645 18 315 0.0 6.4 0.00 0.15 0.00 62 1007.8
20260905092844 19 315 0.0 4.8 0.00 0.15 0.00 62 1007.6
20260905092044 18 22 0.0 8.0 0.00 0.15 0.00 64 1007.6
20260905091244 18 0 0.0 6.4 0.00 0.15 0.00 65 1007.6
20260905090444 18 315 0.0 0.0 0.00 0.15 0.00 67 1007.3
20260905085645 18 0 0.0 8.0 0.00 0.15 0.00 68 1007.3
20260905084846 18 315 0.0 3.2 0.00 0.15 0.00 67 1007.3
20260905084045 18 22 0.0 9.7 0.00 0.15 0.00 68 1007.3
20260905083245 18 337 3.2 3.2 0.00 0.15 0.00 68 1007.2
20260905081645 18 22 0.0 1.6 0.00 0.15 0.00 69 1007.3
20260905080845 18 90 0.0 0.0 0.00 0.15 0.00 70 1007.3
20260905080044 17 0 0.0 6.4 0.00 0.15 0.00 71 1007.3
20260905075246 17 315 0.0 4.8 0.00 0.15 0.00 72 1007.2
20260905074446 17 0 0.0 3.2 0.00 0.15 0.00 73 1007.1
20260905073645 17 292 3.2 3.2 0.00 0.15 0.00 73 1006.9
20260905072845 17 292 0.0 6.4 0.00 0.15 0.00 73 1007.0
20260905071245 17 45 3.2 3.2 0.00 0.15 0.00 74 1006.9
20260905070445 17 292 0.0 3.2 0.00 0.15 0.00 75 1006.7
20260905065645 16 90 0.0 0.0 0.00 0.15 0.00 75 1006.5
20260905064045 16 337 0.0 0.0 0.00 0.15 0.00 75 1006.1
20260905063246 16 0 0.0 0.0 0.00 0.15 0.00 75 1006.1
20260905062445 16 337 0.0 0.0 0.00 0.15 0.00 76 1006.1
20260905061645 16 337 0.0 4.8 0.00 0.15 0.00 77 1006.0
20260905060845 16 22 0.0 0.0 0.00 0.15 0.00 77 1005.8
20260905055245 15 0 0.0 0.0 0.00 0.15 0.00 76 1005.8
20260905054445 15 22 0.0 0.0 0.00 0.15 0.00 77 1005.7
20260905053645 15 0 0.0 0.0 0.00 0.15 0.00 77 1005.5
20260905052845 15 292 0.0 0.0 0.00 0.15 0.00 77 1005.7
20260905052045 15 0 0.0 6.4 0.00 0.15 0.00 77 1005.6
20260905051245 15 337 0.0 0.0 0.00 0.15 0.00 76 1005.5
20260905050445 15 337 0.0 6.4 0.00 0.15 0.00 76 1005.2
20260905045645 15 337 0.0 6.4 0.00 0.15 0.00 76 1004.9
20260905044845 15 292 3.2 3.2 0.00 0.15 0.00 77 1004.9
20260905044045 15 0 0.0 0.0 0.00 0.15 0.00 77 1004.9
20260905043245 15 337 0.0 0.0 0.00 0.15 0.00 77 1004.7
20260905042445 16 315 0.0 3.2 0.00 0.15 0.00 77 1004.5
20260905041646 16 67 0.0 3.2 0.00 0.15 0.00 78 1004.1
20260905040845 16 90 0.0 3.2 0.00 0.15 0.00 79 1004.2
20260905040045 16 22 0.0 0.0 0.00 0.15 0.00 81 1003.9
20260905035245 16 292 0.0 0.0 0.00 0.15 0.00 81 1003.8
20260905034445 16 292 0.0 9.7 0.00 0.15 0.00 82 1003.7
20260905033645 16 67 0.0 3.2 0.00 0.15 0.00 82 1003.5
20260905032845 16 337 0.0 3.2 0.00 0.15 0.00 82 1003.1
20260905032045 16 337 0.0 0.0 0.00 0.15 0.00 82 1003.0
20260905031245 16 22 0.0 4.8 0.00 0.15 0.00 82 1002.8
20260905030445 16 22 0.0 1.6 0.00 0.15 0.00 83 1002.9
20260905025645 16 22 3.2 6.4 0.00 0.15 0.00 83 1002.7
20260905024845 16 22 0.0 0.0 0.00 0.15 0.00 83 1002.9
20260905024045 16 292 0.0 1.6 0.00 0.15 0.00 83 1002.7
20260905023245 16 0 0.0 0.0 0.00 0.15 0.00 83 1002.8
20260905022445 16 90 0.0 0.0 0.00 0.15 0.00 82 1003.0
20260905021645 16 0 0.0 3.2 0.00 0.15 0.00 82 1002.7
20260905020845 16 337 4.8 9.7 0.00 0.15 0.00 82 1002.6
20260905020045 16 45 0.0 3.2 0.00 0.15 0.00 82 1002.3
20260905015245 17 0 8.0 8.0 0.00 0.15 0.00 82 1002.1
20260905014445 17 22 0.0 9.7 0.00 0.15 0.00 82 1002.1
20260905013645 17 337 0.0 6.4 0.00 0.15 0.00 82 1002.1
20260905012845 17 0 0.0 3.2 0.00 0.15 0.00 82 1002.3
20260905012045 17 292 0.0 0.0 0.00 0.15 0.00 83 1002.2
20260905011245 17 22 3.2 3.2 0.00 0.15 0.00 83 1002.0
20260905010445 17 337 0.0 0.0 0.00 0.15 0.00 83 1001.9
20260905005645 17 315 3.2 9.7 0.00 0.15 0.00 83 1001.5
20260905004846 17 22 0.0 6.4 0.00 0.15 0.00 85 1001.5
20260905004045 17 337 0.0 3.2 0.00 0.15 0.00 85 1001.4
20260905003245 17 0 0.0 3.2 0.00 0.15 0.00 86 1001.3
20260905002445 17 0 0.0 4.8 0.00 0.15 0.00 86 1001.2
20260905001645 17 0 0.0 0.0 0.00 0.15 0.00 87 1001.3
20260905000845 17 22 0.0 4.8 0.00 0.15 0.00 87 1001.2
20260905000045 17 0 0.0 1.6 0.00 0.15 0.00 88 1001.5
20260904235246 17 0 0.0 0.0 0.00 0.15 0.00 88 1001.3
20260904234445 17 22 0.0 0.0 0.00 0.15 0.00 88 1001.2
20260904233645 17 22 0.0 0.0 0.00 0.15 0.00 89 1001.3
20260904232845 17 0 0.0 4.8 0.00 0.15 0.00 89 1001.0
20260904231245 17 22 0.0 0.0 0.00 0.15 0.00 89 1001.4
20260904230445 17 0 0.0 3.2 0.00 0.15 0.00 89 1001.3
20260904225648 17 337 0.0 0.0 0.00 0.15 0.00 89 1001.0
20260904224846 17 0 0.0 0.0 0.00 0.15 0.00 89 1000.9
20260904224045 17 22 0.0 0.0 0.00 0.15 0.00 89 1000.8